TimeNZDT,TemperatureF,Dew PointF,Humidity,Sea Level PressureIn,VisibilityMPH,Wind Direction,Wind SpeedMPH,Gust SpeedMPH,PrecipitationIn,Events,Conditions,WindDirDegrees,DateUTC
12:00 AM,41.0,39.2,93,29.71,6.2,NNW,3.5,-,N/A,,Scattered Clouds,340,2012-10-15 11:00:00
1:00 AM,39.2,37.4,93,29.68,-9999.0,NNW,3.5,-,N/A,,Clear,340,2012-10-15 12:00:00
2:00 AM,37.4,35.6,93,29.68,-9999.0,NW,1.2,-,N/A,,Clear,320,2012-10-15 13:00:00
3:00 AM,35.6,33.8,93,29.68,-9999.0,SW,2.3,-,N/A,,Clear,220,2012-10-15 14:00:00
4:00 AM,33.8,32.0,93,29.68,-9999.0,West,2.3,-,N/A,,Clear,270,2012-10-15 15:00:00
5:00 AM,33.8,32.0,93,29.68,-9999.0,West,2.3,-,N/A,,Clear,260,2012-10-15 16:00:00
6:00 AM,32.0,32.0,100,29.68,-9999.0,Calm,Calm,-,N/A,,Clear,0,2012-10-15 17:00:00
7:00 AM,32.0,32.0,100,29.71,-9999.0,WNW,2.3,-,N/A,,Clear,300,2012-10-15 18:00:00
8:00 AM,39.2,39.2,100,29.71,-9999.0,NW,1.2,-,N/A,,Clear,320,2012-10-15 19:00:00
9:00 AM,50.0,41.0,71,29.74,-9999.0,WSW,1.2,-,N/A,,Clear,250,2012-10-15 20:00:00
10:00 AM,55.4,35.6,47,29.74,-9999.0,SE,2.3,-,N/A,,Clear,130,2012-10-15 21:00:00
11:00 AM,57.2,35.6,44,29.74,-9999.0,NNE,3.5,-,N/A,,Clear,20,2012-10-15 22:00:00
12:00 PM,57.2,39.2,51,29.74,-9999.0,NE,9.2,-,N/A,,Clear,40,2012-10-15 23:00:00
1:00 PM,57.2,42.8,59,29.71,-9999.0,ENE,10.4,-,N/A,,Clear,60,2012-10-16 00:00:00
2:00 PM,59.0,44.6,59,29.71,-9999.0,NE,11.5,-,N/A,,Clear,50,2012-10-16 01:00:00
3:00 PM,57.2,44.6,63,29.71,6.2,NE,13.8,-,N/A,,Mostly Cloudy,50,2012-10-16 02:00:00
4:00 PM,57.2,42.8,59,29.68,-9999.0,ENE,15.0,-,N/A,,Clear,60,2012-10-16 03:00:00
5:00 PM,53.6,42.8,67,29.68,-9999.0,ENE,16.1,-,N/A,,Clear,70,2012-10-16 04:00:00
6:00 PM,53.6,44.6,72,29.68,-9999.0,ENE,13.8,-,N/A,,Clear,60,2012-10-16 05:00:00
7:00 PM,51.8,44.6,76,29.68,-9999.0,East,15.0,-,N/A,,Clear,90,2012-10-16 06:00:00
8:00 PM,51.8,44.6,76,29.68,-9999.0,East,10.4,-,N/A,,Clear,90,2012-10-16 07:00:00
9:00 PM,50.0,44.6,82,29.68,-9999.0,East,10.4,-,N/A,,Clear,80,2012-10-16 08:00:00
10:00 PM,50.0,44.6,82,29.68,-9999.0,NE,8.1,-,N/A,,Clear,50,2012-10-16 09:00:00
11:00 PM,48.2,44.6,87,29.68,-9999.0,NE,6.9,-,N/A,,Clear,50,2012-10-16 10:00:00